Time,TemperatureF,DewpointF,PressureIn,WindDirection,WindDirectionDegrees,WindSpeedMPH,WindSpeedGustMPH,Humidity,HourlyPrecipIn,Conditions,Clouds,dailyrainin,SoftwareType,DateUTC
2013-08-01 00:03:00,90.3,74.0,29.98,ESE,112,4.3,-999.0,59,-99.99,,,0.00,Acu-Link.com,2013-08-01 05:03:00,
2013-08-01 00:18:00,90.3,74.0,29.98,SSW,202,1.6,-999.0,59,-99.99,,,0.00,Acu-Link.com,2013-08-01 05:18:00,
2013-08-01 00:33:00,89.8,74.0,29.98,WNW,292,2.2,-999.0,60,-99.99,,,0.00,Acu-Link.com,2013-08-01 05:33:00,
2013-08-01 00:49:00,89.4,74.2,29.97,SSE,157,0.0,-999.0,61,-99.99,,,0.00,Acu-Link.com,2013-08-01 05:49:00,
2013-08-01 01:04:00,89.1,74.3,29.97,ESE,112,0.0,-999.0,62,-99.99,,,0.00,Acu-Link.com,2013-08-01 06:04:00,
2013-08-01 01:19:00,88.7,74.0,29.97,South,180,0.0,-999.0,62,-99.99,,,0.00,Acu-Link.com,2013-08-01 06:19:00,
2013-08-01 01:34:00,88.2,73.9,29.97,SSE,157,0.0,-999.0,63,-99.99,,,0.00,Acu-Link.com,2013-08-01 06:34:00,
2013-08-01 01:50:00,88.2,74.4,29.97,ESE,112,0.0,-999.0,64,-99.99,,,0.00,Acu-Link.com,2013-08-01 06:50:00,
2013-08-01 02:05:00,87.6,73.9,29.97,North,0,0.0,-999.0,64,-99.99,,,0.00,Acu-Link.com,2013-08-01 07:05:00,
2013-08-01 02:20:00,87.4,74.2,29.97,South,180,1.6,-999.0,65,-99.99,,,0.00,Acu-Link.com,2013-08-01 07:20:00,
2013-08-01 02:36:00,87.1,73.9,29.97,West,270,0.0,-999.0,65,-99.99,,,0.00,Acu-Link.com,2013-08-01 07:36:00,
2013-08-01 02:51:00,86.5,73.3,29.97,SW,225,0.0,-999.0,65,-99.99,,,0.00,Acu-Link.com,2013-08-01 07:51:00,
2013-08-01 03:06:00,86.2,73.0,29.97,SSW,202,0.0,-999.0,65,-99.99,,,0.00,Acu-Link.com,2013-08-01 08:06:00,
2013-08-01 03:22:00,86.0,73.3,29.97,WSW,247,0.0,-999.0,66,-99.99,,,0.00,Acu-Link.com,2013-08-01 08:22:00,
2013-08-01 03:37:00,85.8,73.1,29.96,South,180,0.0,-999.0,66,-99.99,,,0.00,Acu-Link.com,2013-08-01 08:37:00,
2013-08-01 03:52:00,85.3,73.1,29.97,SSE,157,0.0,-999.0,67,-99.99,,,0.00,Acu-Link.com,2013-08-01 08:52:00,
2013-08-01 04:22:00,84.4,73.1,29.97,SSE,157,0.0,-999.0,69,-99.99,,,0.00,Acu-Link.com,2013-08-01 09:22:00,
2013-08-01 04:38:00,84.0,73.6,29.97,South,180,0.0,-999.0,71,-99.99,,,0.00,Acu-Link.com,2013-08-01 09:38:00,
2013-08-01 04:53:00,83.7,73.7,29.97,South,180,0.0,-999.0,72,-99.99,,,0.00,Acu-Link.com,2013-08-01 09:53:00,
2013-08-01 05:08:00,83.5,73.5,29.97,SSW,202,0.0,-999.0,72,-99.99,,,0.00,Acu-Link.com,2013-08-01 10:08:00,
2013-08-01 05:23:00,83.3,74.1,29.97,WSW,247,0.0,-999.0,74,-99.99,,,0.00,Acu-Link.com,2013-08-01 10:23:00,
2013-08-01 05:39:00,83.1,74.0,29.97,SE,135,0.0,-999.0,74,-99.99,,,0.00,Acu-Link.com,2013-08-01 10:39:00,
2013-08-01 05:54:00,83.1,74.4,29.98,WNW,292,0.0,-999.0,75,-99.99,,,0.00,Acu-Link.com,2013-08-01 10:54:00,
2013-08-01 06:09:00,83.1,74.4,29.98,South,180,0.0,-999.0,75,-99.99,,,0.00,Acu-Link.com,2013-08-01 11:09:00,
2013-08-01 06:25:00,82.9,74.6,29.98,ESE,112,2.2,-999.0,76,-99.99,,,0.00,Acu-Link.com,2013-08-01 11:25:00,
2013-08-01 06:40:00,82.9,75.0,29.99,SW,225,0.0,-999.0,77,-99.99,,,0.00,Acu-Link.com,2013-08-01 11:40:00,
2013-08-01 06:55:00,82.8,75.2,30.00,SE,135,1.6,-999.0,78,-99.99,,,0.00,Acu-Link.com,2013-08-01 11:55:00,
2013-08-01 07:11:00,82.8,75.6,30.00,ESE,112,0.0,-999.0,79,-99.99,,,0.00,Acu-Link.com,2013-08-01 12:11:00,
2013-08-01 07:56:00,83.7,76.4,30.00,East,90,1.6,-999.0,79,-99.99,,,0.00,Acu-Link.com,2013-08-01 12:56:00,
2013-08-01 08:11:00,84.2,76.2,30.00,SSW,202,0.0,-999.0,77,-99.99,,,0.00,Acu-Link.com,2013-08-01 13:11:00,
2013-08-01 08:27:00,86.5,76.8,30.00,SSW,202,0.0,-999.0,73,-99.99,,,0.00,Acu-Link.com,2013-08-01 13:27:00,
2013-08-01 08:42:00,89.2,76.8,30.01,SSE,157,0.0,-999.0,67,-99.99,,,0.00,Acu-Link.com,2013-08-01 13:42:00,
2013-08-01 08:57:00,90.9,76.5,30.01,ESE,112,1.6,-999.0,63,-99.99,,,0.00,Acu-Link.com,2013-08-01 13:57:00,
2013-08-01 09:13:00,91.2,76.8,30.01,SW,225,0.0,-999.0,63,-99.99,,,0.00,Acu-Link.com,2013-08-01 14:13:00,
2013-08-01 09:28:00,94.1,76.5,30.00,SW,225,2.2,-999.0,57,-99.99,,,0.00,Acu-Link.com,2013-08-01 14:28:00,
2013-08-01 09:43:00,94.1,77.0,30.00,South,180,0.0,-999.0,58,-99.99,,,0.00,Acu-Link.com,2013-08-01 14:43:00,
2013-08-01 09:59:00,93.0,76.5,30.00,NW,315,2.2,-999.0,59,-99.99,,,0.00,Acu-Link.com,2013-08-01 14:59:00,
2013-08-01 10:29:00,93.9,75.8,30.00,SSW,202,1.6,-999.0,56,-99.99,,,0.00,Acu-Link.com,2013-08-01 15:29:00,
2013-08-01 10:44:00,96.1,76.1,30.00,SSE,157,1.6,-999.0,53,-99.99,,,0.00,Acu-Link.com,2013-08-01 15:44:00,
2013-08-01 11:30:00,96.1,75.6,30.00,SE,135,0.0,-999.0,52,-99.99,,,0.00,Acu-Link.com,2013-08-01 16:30:00,
2013-08-01 11:46:00,98.2,75.1,30.00,SW,225,3.8,-999.0,48,-99.99,,,0.00,Acu-Link.com,2013-08-01 16:46:00,
2013-08-01 13:02:00,99.9,76.0,29.99,NNE,22,2.7,-999.0,47,-99.99,,,0.00,Acu-Link.com,2013-08-01 18:02:00,
2013-08-01 13:17:00,100.2,75.6,29.99,East,90,2.7,-999.0,46,-99.99,,,0.00,Acu-Link.com,2013-08-01 18:17:00,
2013-08-01 13:33:00,101.1,74.4,29.98,West,270,1.1,-999.0,43,-99.99,,,0.00,Acu-Link.com,2013-08-01 18:33:00,
2013-08-01 13:48:00,100.8,74.8,29.98,South,180,1.1,-999.0,44,-99.99,,,0.00,Acu-Link.com,2013-08-01 18:48:00,
2013-08-01 14:19:00,99.9,72.6,29.97,SW,225,1.1,-999.0,42,-99.99,,,0.00,Acu-Link.com,2013-08-01 19:19:00,
2013-08-01 14:34:00,100.0,72.8,29.96,WNW,292,2.7,-999.0,42,-99.99,,,0.00,Acu-Link.com,2013-08-01 19:34:00,
2013-08-01 14:49:00,100.6,72.5,29.95,South,180,2.7,-999.0,41,-99.99,,,0.00,Acu-Link.com,2013-08-01 19:49:00,
2013-08-01 15:05:00,101.5,72.6,29.95,West,270,2.2,-999.0,40,-99.99,,,0.00,Acu-Link.com,2013-08-01 20:05:00,
2013-08-01 15:20:00,101.7,72.8,29.94,ESE,112,2.7,-999.0,40,-99.99,,,0.00,Acu-Link.com,2013-08-01 20:20:00,
2013-08-01 15:35:00,102.9,72.3,29.94,SSE,157,2.7,-999.0,38,-99.99,,,0.00,Acu-Link.com,2013-08-01 20:35:00,
2013-08-01 15:50:00,105.4,72.9,29.94,NNE,22,1.1,-999.0,36,-99.99,,,0.00,Acu-Link.com,2013-08-01 20:50:00,
2013-08-01 16:05:00,102.6,71.2,29.93,ESE,112,2.7,-999.0,37,-99.99,,,0.00,Acu-Link.com,2013-08-01 21:05:00,
2013-08-01 16:21:00,102.9,70.7,29.93,NE,45,2.7,-999.0,36,-99.99,,,0.00,Acu-Link.com,2013-08-01 21:21:00,
2013-08-01 16:51:00,104.2,71.0,29.91,West,270,1.6,-999.0,35,-99.99,,,0.00,Acu-Link.com,2013-08-01 21:51:00,
2013-08-01 17:07:00,103.5,70.4,29.91,SSW,202,2.2,-999.0,35,-99.99,,,0.00,Acu-Link.com,2013-08-01 22:07:00,
2013-08-01 17:22:00,103.1,70.9,29.91,South,180,1.6,-999.0,36,-99.99,,,0.00,Acu-Link.com,2013-08-01 22:22:00,
2013-08-01 17:37:00,103.1,70.9,29.90,ESE,112,1.6,-999.0,36,-99.99,,,0.00,Acu-Link.com,2013-08-01 22:37:00,
2013-08-01 17:53:00,105.6,69.6,29.89,West,270,2.7,-999.0,32,-99.99,,,0.00,Acu-Link.com,2013-08-01 22:53:00,
2013-08-01 18:08:00,105.6,70.5,29.89,North,0,2.2,-999.0,33,-99.99,,,0.00,Acu-Link.com,2013-08-01 23:08:00,
2013-08-01 18:23:00,105.8,70.7,29.89,South,180,2.2,-999.0,33,-99.99,,,0.00,Acu-Link.com,2013-08-01 23:23:00,
2013-08-01 18:54:00,103.3,70.2,29.88,SSE,157,1.1,-999.0,35,-99.99,,,0.00,Acu-Link.com,2013-08-01 23:54:00,
2013-08-01 19:09:00,103.6,69.7,29.88,SE,135,2.2,-999.0,34,-99.99,,,0.00,Acu-Link.com,2013-08-02 00:09:00,
2013-08-01 19:24:00,102.6,67.9,29.88,NE,45,1.6,-999.0,33,-99.99,,,0.00,Acu-Link.com,2013-08-02 00:24:00,
2013-08-01 19:39:00,101.5,66.9,29.88,ESE,112,0.0,-999.0,33,-99.99,,,0.00,Acu-Link.com,2013-08-02 00:39:00,
2013-08-01 19:55:00,99.0,68.9,29.89,ESE,112,2.7,-999.0,38,-99.99,,,0.00,Acu-Link.com,2013-08-02 00:55:00,
2013-08-01 20:10:00,97.7,70.0,29.90,ESE,112,4.3,-999.0,41,-99.99,,,0.00,Acu-Link.com,2013-08-02 01:10:00,
2013-08-01 20:25:00,97.0,70.7,29.90,East,90,0.0,-999.0,43,-99.99,,,0.00,Acu-Link.com,2013-08-02 01:25:00,
2013-08-01 20:41:00,96.3,70.7,29.91,SE,135,2.2,-999.0,44,-99.99,,,0.00,Acu-Link.com,2013-08-02 01:41:00,
2013-08-01 20:56:00,95.5,70.8,29.91,SSW,202,4.3,-999.0,45,-99.99,,,0.00,Acu-Link.com,2013-08-02 01:56:00,
2013-08-01 21:11:00,94.8,70.8,29.91,SSE,157,5.8,-999.0,46,-99.99,,,0.00,Acu-Link.com,2013-08-02 02:11:00,
2013-08-01 21:41:00,93.4,70.7,29.91,ESE,112,1.1,-999.0,48,-99.99,,,0.00,Acu-Link.com,2013-08-02 02:41:00,
2013-08-01 21:57:00,93.4,70.1,29.91,ESE,112,4.7,-999.0,47,-99.99,,,0.00,Acu-Link.com,2013-08-02 02:57:00,
2013-08-01 22:12:00,93.0,70.4,29.91,SE,135,3.1,-999.0,48,-99.99,,,0.00,Acu-Link.com,2013-08-02 03:12:00,
2013-08-01 22:27:00,92.5,70.5,29.91,South,180,2.2,-999.0,49,-99.99,,,0.00,Acu-Link.com,2013-08-02 03:27:00,
2013-08-01 22:42:00,91.8,71.0,29.92,West,270,2.2,-999.0,51,-99.99,,,0.00,Acu-Link.com,2013-08-02 03:42:00,
2013-08-01 22:58:00,90.9,71.9,29.92,ESE,112,2.7,-999.0,54,-99.99,,,0.00,Acu-Link.com,2013-08-02 03:58:00,
2013-08-01 23:13:00,90.0,71.6,29.93,ESE,112,5.8,-999.0,55,-99.99,,,0.00,Acu-Link.com,2013-08-02 04:13:00,
2013-08-01 23:28:00,89.4,71.6,29.93,ESE,112,3.8,-999.0,56,-99.99,,,0.00,Acu-Link.com,2013-08-02 04:28:00,
2013-08-01 23:43:00,89.2,71.5,29.93,ENE,67,3.1,-999.0,56,-99.99,,,0.00,Acu-Link.com,2013-08-02 04:43:00,
2013-08-01 23:59:00,88.9,71.1,29.93,NW,315,3.1,-999.0,56,-99.99,,,0.00,Acu-Link.com,2013-08-02 04:59:00,